Time,TemperatureF,DewpointF,PressureIn,WindDirection,WindDirectionDegrees,WindSpeedMPH,WindSpeedGustMPH,Humidity,HourlyPrecipIn,Conditions,Clouds,dailyrainin,SoftwareType,DateUTC
2013-09-10 00:02:00,81.5,59.4,28.46,East,90,1.0,5.0,47,0.00,,,0.00,meteohub,2013-09-10 05:02:00,
2013-09-10 00:07:00,81.3,59.2,28.46,East,90,6.0,6.0,47,0.00,,,0.00,meteohub,2013-09-10 05:07:00,
2013-09-10 00:12:00,81.1,59.0,28.46,East,90,1.0,6.0,47,0.00,,,0.00,meteohub,2013-09-10 05:12:00,
2013-09-10 00:17:00,80.8,59.2,28.46,East,90,1.0,6.0,48,0.00,,,0.00,meteohub,2013-09-10 05:17:00,
2013-09-10 00:22:00,80.8,59.9,28.46,East,90,5.0,6.0,49,0.00,,,0.00,meteohub,2013-09-10 05:22:00,
2013-09-10 00:27:00,80.6,59.7,28.46,East,90,1.0,5.0,49,0.00,,,0.00,meteohub,2013-09-10 05:27:00,
2013-09-10 00:32:00,80.2,59.4,28.46,North,0,4.0,5.0,49,0.00,,,0.00,meteohub,2013-09-10 05:32:00,
2013-09-10 00:37:00,80.2,59.4,28.46,East,90,1.0,5.0,49,0.00,,,0.00,meteohub,2013-09-10 05:37:00,
2013-09-10 00:42:00,80.2,59.9,28.47,SE,135,1.0,5.0,50,0.00,,,0.00,meteohub,2013-09-10 05:42:00,
2013-09-10 00:47:00,80.2,60.4,28.46,NE,45,5.0,6.0,51,0.00,,,0.00,meteohub,2013-09-10 05:47:00,
2013-09-10 00:52:00,80.4,60.6,28.46,East,90,5.0,6.0,51,0.00,,,0.00,meteohub,2013-09-10 05:52:00,
2013-09-10 00:57:00,80.4,60.6,28.47,NE,45,6.0,6.0,51,0.00,,,0.00,meteohub,2013-09-10 05:57:00,
2013-09-10 01:02:00,80.1,60.3,28.47,East,90,3.0,6.0,51,0.00,,,0.00,meteohub,2013-09-10 06:02:00,
2013-09-10 01:07:00,80.2,61.0,28.46,East,90,4.0,8.0,52,0.00,,,0.00,meteohub,2013-09-10 06:07:00,
2013-09-10 01:12:00,79.7,60.4,28.47,East,90,6.0,8.0,52,0.00,,,0.00,meteohub,2013-09-10 06:12:00,
2013-09-10 01:18:00,79.9,60.6,28.47,SE,135,1.0,8.0,52,0.00,,,0.00,meteohub,2013-09-10 06:18:00,
2013-09-10 01:23:00,79.9,61.2,28.47,East,90,8.0,8.0,53,0.00,,,0.00,meteohub,2013-09-10 06:23:00,
2013-09-10 01:28:00,80.1,61.3,28.47,South,180,5.0,10.0,53,0.00,,,0.00,meteohub,2013-09-10 06:28:00,
2013-09-10 01:33:00,79.7,61.0,28.47,SE,135,7.0,10.0,53,0.00,,,0.00,meteohub,2013-09-10 06:33:00,
2013-09-10 01:38:00,79.7,61.0,28.47,East,90,2.0,10.0,53,0.00,,,0.00,meteohub,2013-09-10 06:38:00,
2013-09-10 01:43:00,79.3,61.2,28.48,East,90,4.0,9.0,54,0.00,,,0.00,meteohub,2013-09-10 06:43:00,
2013-09-10 01:48:00,79.0,61.0,28.48,SE,135,2.0,9.0,54,0.00,,,0.00,meteohub,2013-09-10 06:48:00,
2013-09-10 01:53:00,78.4,61.5,28.48,SE,135,8.0,9.0,56,0.00,,,0.00,meteohub,2013-09-10 06:53:00,
2013-09-10 01:58:00,78.6,61.5,28.48,East,90,6.0,6.0,56,0.00,,,0.00,meteohub,2013-09-10 06:58:00,
2013-09-10 02:03:00,78.4,61.5,28.48,SE,135,3.0,8.0,56,0.00,,,0.00,meteohub,2013-09-10 07:03:00,
2013-09-10 02:08:00,78.6,61.5,28.47,SE,135,2.0,8.0,56,0.00,,,0.00,meteohub,2013-09-10 07:08:00,
2013-09-10 02:13:00,78.4,61.9,28.48,East,90,5.0,6.0,57,0.00,,,0.00,meteohub,2013-09-10 07:13:00,
2013-09-10 02:18:00,78.1,61.5,28.48,NE,45,1.0,6.0,57,0.00,,,0.00,meteohub,2013-09-10 07:18:00,
2013-09-10 02:23:00,77.9,61.9,28.48,West,270,2.0,7.0,58,0.00,,,0.00,meteohub,2013-09-10 07:23:00,
2013-09-10 02:28:00,78.1,62.1,28.48,South,180,2.0,7.0,58,0.00,,,0.00,meteohub,2013-09-10 07:28:00,
2013-09-10 02:33:00,78.4,62.4,28.48,SE,135,4.0,7.0,58,0.00,,,0.00,meteohub,2013-09-10 07:33:00,
2013-09-10 02:38:00,78.4,62.4,28.48,SE,135,2.0,6.0,58,0.00,,,0.00,meteohub,2013-09-10 07:38:00,
2013-09-10 02:43:00,78.3,62.2,28.48,SE,135,4.0,9.0,58,0.00,,,0.00,meteohub,2013-09-10 07:43:00,
2013-09-10 02:48:00,78.3,62.8,28.48,SE,135,5.0,9.0,59,0.00,,,0.00,meteohub,2013-09-10 07:48:00,
2013-09-10 02:53:00,78.3,62.8,28.48,SE,135,4.0,9.0,59,0.00,,,0.00,meteohub,2013-09-10 07:53:00,
2013-09-10 02:58:00,78.1,63.1,28.49,NE,45,7.0,7.0,60,0.00,,,0.00,meteohub,2013-09-10 07:58:00,
2013-09-10 03:03:00,77.9,63.9,28.48,SE,135,8.0,8.0,62,0.00,,,0.00,meteohub,2013-09-10 08:03:00,
2013-09-10 03:08:00,78.1,64.0,28.49,SE,135,1.0,7.0,62,0.00,,,0.00,meteohub,2013-09-10 08:08:00,
2013-09-10 03:13:00,77.9,64.2,28.49,SE,135,8.0,8.0,63,0.00,,,0.00,meteohub,2013-09-10 08:13:00,
2013-09-10 03:18:00,77.9,64.2,28.49,NE,45,1.0,8.0,63,0.00,,,0.00,meteohub,2013-09-10 08:18:00,
2013-09-10 03:23:00,78.1,64.9,28.49,South,180,4.0,8.0,64,0.00,,,0.00,meteohub,2013-09-10 08:23:00,
2013-09-10 03:28:00,78.1,65.3,28.49,SSE,158,4.0,8.0,65,0.00,,,0.00,meteohub,2013-09-10 08:28:00,
2013-09-10 03:33:00,78.1,65.3,28.49,East,90,5.0,6.0,65,0.00,,,0.00,meteohub,2013-09-10 08:33:00,
2013-09-10 03:38:00,77.9,65.1,28.49,South,180,1.0,6.0,65,0.00,,,0.00,meteohub,2013-09-10 08:38:00,
2013-09-10 03:43:00,77.9,65.7,28.49,North,0,2.0,7.0,66,0.00,,,0.00,meteohub,2013-09-10 08:43:00,
2013-09-10 03:48:00,77.7,65.5,28.49,East,90,3.0,7.0,66,0.00,,,0.00,meteohub,2013-09-10 08:48:00,
2013-09-10 03:53:00,77.9,65.7,28.49,South,180,1.0,7.0,66,0.00,,,0.00,meteohub,2013-09-10 08:53:00,
2013-09-10 03:58:00,77.9,65.7,28.50,East,90,4.0,5.0,66,0.00,,,0.00,meteohub,2013-09-10 08:58:00,
2013-09-10 04:04:00,77.7,65.5,28.50,SE,135,1.0,7.0,66,0.00,,,0.00,meteohub,2013-09-10 09:04:00,
2013-09-10 04:09:00,77.5,65.7,28.50,SE,135,2.0,7.0,67,0.00,,,0.00,meteohub,2013-09-10 09:09:00,
2013-09-10 04:14:00,77.4,65.5,28.50,East,90,3.0,7.0,67,0.00,,,0.00,meteohub,2013-09-10 09:14:00,
2013-09-10 04:19:00,77.2,65.8,28.50,East,90,4.0,4.0,68,0.00,,,0.00,meteohub,2013-09-10 09:19:00,
2013-09-10 04:24:00,77.4,66.0,28.50,ENE,68,3.0,5.0,68,0.00,,,0.00,meteohub,2013-09-10 09:24:00,
2013-09-10 04:29:00,77.2,65.8,28.50,East,90,2.0,5.0,68,0.00,,,0.00,meteohub,2013-09-10 09:29:00,
2013-09-10 04:34:00,77.0,66.0,28.51,East,90,8.0,8.0,69,0.00,,,0.00,meteohub,2013-09-10 09:34:00,
2013-09-10 04:39:00,77.2,65.8,28.51,SE,135,3.0,6.0,68,0.00,,,0.00,meteohub,2013-09-10 09:39:00,
2013-09-10 04:44:00,77.0,66.0,28.50,SE,135,2.0,8.0,69,0.00,,,0.00,meteohub,2013-09-10 09:44:00,
2013-09-10 04:49:00,77.0,66.0,28.50,ENE,68,4.0,8.0,69,0.00,,,0.00,meteohub,2013-09-10 09:49:00,
2013-09-10 04:54:00,76.6,65.7,28.51,SE,135,2.0,7.0,69,0.00,,,0.00,meteohub,2013-09-10 09:54:00,
2013-09-10 04:59:00,76.8,65.8,28.51,SE,135,6.0,6.0,69,0.00,,,0.00,meteohub,2013-09-10 09:59:00,
2013-09-10 05:04:00,76.6,65.7,28.51,South,180,5.0,8.0,69,0.00,,,0.00,meteohub,2013-09-10 10:04:00,
2013-09-10 05:09:00,76.8,65.5,28.51,East,90,3.0,8.0,68,0.00,,,0.00,meteohub,2013-09-10 10:09:00,
2013-09-10 05:14:00,76.6,65.7,28.51,ESE,113,4.0,8.0,69,0.00,,,0.00,meteohub,2013-09-10 10:14:00,
2013-09-10 05:19:00,76.5,65.5,28.51,North,0,1.0,7.0,69,0.00,,,0.00,meteohub,2013-09-10 10:19:00,
2013-09-10 05:24:00,76.3,65.3,28.51,SE,135,1.0,10.0,69,0.00,,,0.00,meteohub,2013-09-10 10:24:00,
2013-09-10 05:29:00,76.1,65.1,28.51,East,90,1.0,10.0,69,0.00,,,0.00,meteohub,2013-09-10 10:29:00,
2013-09-10 05:34:00,76.1,65.1,28.51,South,180,8.0,10.0,69,0.00,,,0.00,meteohub,2013-09-10 10:34:00,
2013-09-10 05:39:00,75.9,64.9,28.51,SE,135,1.0,8.0,69,0.00,,,0.00,meteohub,2013-09-10 10:39:00,
2013-09-10 05:44:00,75.9,64.9,28.51,SE,135,2.0,8.0,69,0.00,,,0.00,meteohub,2013-09-10 10:44:00,
2013-09-10 05:49:00,75.6,65.1,28.51,East,90,1.0,8.0,70,0.00,,,0.00,meteohub,2013-09-10 10:49:00,
2013-09-10 05:54:00,75.6,64.8,28.52,East,90,1.0,6.0,69,0.00,,,0.00,meteohub,2013-09-10 10:54:00,
2013-09-10 05:59:00,75.4,64.9,28.52,East,90,1.0,6.0,70,0.00,,,0.00,meteohub,2013-09-10 10:59:00,
2013-09-10 06:04:00,75.0,64.6,28.52,SE,135,1.0,3.0,70,0.00,,,0.00,meteohub,2013-09-10 11:04:00,
2013-09-10 06:09:00,75.2,64.8,28.52,NW,315,2.0,3.0,70,0.00,,,0.00,meteohub,2013-09-10 11:09:00,
2013-09-10 06:14:00,74.8,64.4,28.53,SE,135,1.0,3.0,70,0.00,,,0.00,meteohub,2013-09-10 11:14:00,
2013-09-10 06:19:00,74.8,64.8,28.53,East,90,1.0,3.0,71,0.00,,,0.00,meteohub,2013-09-10 11:19:00,
2013-09-10 06:24:00,74.7,65.1,28.53,SE,135,6.0,6.0,72,0.00,,,0.00,meteohub,2013-09-10 11:24:00,
2013-09-10 06:29:00,74.3,65.1,28.53,SW,225,3.0,5.0,73,0.00,,,0.00,meteohub,2013-09-10 11:29:00,
2013-09-10 06:34:00,74.3,65.1,28.53,NE,45,1.0,6.0,73,0.00,,,0.00,meteohub,2013-09-10 11:34:00,
2013-09-10 06:39:00,74.1,64.9,28.53,East,90,1.0,6.0,73,0.00,,,0.00,meteohub,2013-09-10 11:39:00,
2013-09-10 06:44:00,74.1,65.3,28.53,South,180,1.0,5.0,74,0.00,,,0.00,meteohub,2013-09-10 11:44:00,
2013-09-10 06:49:00,74.1,65.3,28.53,East,90,1.0,5.0,74,0.00,,,0.00,meteohub,2013-09-10 11:49:00,
2013-09-10 06:54:00,74.1,65.3,28.53,East,90,1.0,2.0,74,0.00,,,0.00,meteohub,2013-09-10 11:54:00,
2013-09-10 06:59:00,73.9,65.5,28.54,East,90,1.0,1.0,75,0.00,,,0.00,meteohub,2013-09-10 11:59:00,
2013-09-10 07:04:00,73.8,65.3,28.54,East,90,1.0,1.0,75,0.00,,,0.00,meteohub,2013-09-10 12:04:00,
2013-09-10 07:09:00,73.4,65.3,28.54,NE,45,1.0,1.0,76,0.00,,,0.00,meteohub,2013-09-10 12:09:00,
2013-09-10 07:14:00,73.2,65.1,28.54,East,90,1.0,1.0,76,0.00,,,0.00,meteohub,2013-09-10 12:14:00,
2013-09-10 07:20:00,72.9,65.3,28.54,East,90,4.0,4.0,77,0.00,,,0.00,meteohub,2013-09-10 12:20:00,
2013-09-10 07:25:00,73.0,65.8,28.55,East,90,1.0,2.0,78,0.00,,,0.00,meteohub,2013-09-10 12:25:00,
2013-09-10 07:30:00,72.7,65.8,28.55,NE,45,7.0,8.0,79,0.00,,,0.00,meteohub,2013-09-10 12:30:00,
2013-09-10 07:35:00,72.5,65.7,28.55,NE,45,7.0,8.0,79,0.00,,,0.00,meteohub,2013-09-10 12:35:00,
2013-09-10 07:40:00,72.3,65.5,28.56,East,90,7.0,8.0,79,0.00,,,0.00,meteohub,2013-09-10 12:40:00,
2013-09-10 07:45:00,72.3,65.8,28.56,East,90,8.0,8.0,80,0.00,,,0.00,meteohub,2013-09-10 12:45:00,
2013-09-10 07:50:00,72.3,65.8,28.56,East,90,8.0,8.0,80,0.00,,,0.00,meteohub,2013-09-10 12:50:00,
2013-09-10 07:55:00,72.5,65.7,28.56,East,90,7.0,8.0,79,0.00,,,0.00,meteohub,2013-09-10 12:55:00,
2013-09-10 08:00:00,72.9,66.0,28.56,East,90,8.0,11.0,79,0.00,,,0.00,meteohub,2013-09-10 13:00:00,
2013-09-10 08:05:00,73.0,65.8,28.56,East,90,10.0,11.0,78,0.00,,,0.00,meteohub,2013-09-10 13:05:00,
2013-09-10 08:10:00,73.2,66.0,28.56,NNE,23,2.0,11.0,78,0.00,,,0.00,meteohub,2013-09-10 13:10:00,
2013-09-10 08:15:00,73.6,65.8,28.56,SE,135,7.0,12.0,77,0.00,,,0.00,meteohub,2013-09-10 13:15:00,
2013-09-10 08:20:00,74.1,66.0,28.56,ESE,113,10.0,12.0,76,0.00,,,0.00,meteohub,2013-09-10 13:20:00,
2013-09-10 08:25:00,74.7,66.6,28.57,WNW,293,7.0,12.0,76,0.00,,,0.00,meteohub,2013-09-10 13:25:00,
2013-09-10 08:30:00,74.8,66.4,28.56,SE,135,7.0,11.0,75,0.00,,,0.00,meteohub,2013-09-10 13:30:00,
2013-09-10 08:35:00,75.0,66.2,28.56,East,90,11.0,11.0,74,0.00,,,0.00,meteohub,2013-09-10 13:35:00,
2013-09-10 08:41:00,75.7,66.4,28.57,SE,135,9.0,11.0,73,0.00,,,0.00,meteohub,2013-09-10 13:41:00,
2013-09-10 08:46:00,76.5,66.7,28.57,SE,135,1.0,11.0,72,0.00,,,0.00,meteohub,2013-09-10 13:46:00,
2013-09-10 08:51:00,77.0,66.4,28.57,South,180,4.0,11.0,70,0.00,,,0.00,meteohub,2013-09-10 13:51:00,
2013-09-10 08:56:00,77.4,66.4,28.58,East,90,8.0,10.0,69,0.00,,,0.00,meteohub,2013-09-10 13:56:00,
2013-09-10 09:01:00,77.9,66.9,28.58,SE,135,2.0,13.0,69,0.00,,,0.00,meteohub,2013-09-10 14:01:00,
2013-09-10 09:06:00,78.4,66.6,28.58,East,90,6.0,13.0,67,0.00,,,0.00,meteohub,2013-09-10 14:06:00,
2013-09-10 09:11:00,78.8,66.6,28.58,SE,135,8.0,9.0,66,0.00,,,0.00,meteohub,2013-09-10 14:11:00,
2013-09-10 09:16:00,79.2,66.7,28.58,ESE,113,7.0,10.0,66,0.00,,,0.00,meteohub,2013-09-10 14:16:00,
2013-09-10 09:21:00,79.7,66.9,28.58,SE,135,7.0,10.0,65,0.00,,,0.00,meteohub,2013-09-10 14:21:00,
2013-09-10 09:26:00,80.1,67.3,28.58,NE,45,4.0,11.0,65,0.00,,,0.00,meteohub,2013-09-10 14:26:00,
2013-09-10 09:31:00,79.9,66.6,28.58,NE,45,6.0,11.0,64,0.00,,,0.00,meteohub,2013-09-10 14:31:00,
2013-09-10 09:36:00,79.9,67.1,28.59,East,90,7.0,10.0,65,0.00,,,0.00,meteohub,2013-09-10 14:36:00,
2013-09-10 09:41:00,79.7,67.3,28.58,SE,135,4.0,10.0,66,0.00,,,0.00,meteohub,2013-09-10 14:41:00,
2013-09-10 09:46:00,80.2,67.5,28.59,SE,135,8.0,12.0,65,0.00,,,0.00,meteohub,2013-09-10 14:46:00,
2013-09-10 09:51:00,81.0,67.1,28.59,SE,135,7.0,12.0,63,0.00,,,0.00,meteohub,2013-09-10 14:51:00,
2013-09-10 09:56:00,81.5,67.3,28.59,East,90,6.0,12.0,62,0.00,,,0.00,meteohub,2013-09-10 14:56:00,
2013-09-10 10:01:00,81.5,66.7,28.59,SW,225,9.0,11.0,61,0.00,,,0.00,meteohub,2013-09-10 15:01:00,
2013-09-10 10:06:00,81.7,67.5,28.60,South,180,8.0,11.0,62,0.00,,,0.00,meteohub,2013-09-10 15:06:00,
2013-09-10 10:11:00,81.9,67.6,28.59,SE,135,8.0,14.0,62,0.00,,,0.00,meteohub,2013-09-10 15:11:00,
2013-09-10 10:16:00,82.0,67.3,28.60,SSE,158,5.0,14.0,61,0.00,,,0.00,meteohub,2013-09-10 15:16:00,
2013-09-10 10:21:00,82.2,67.5,28.60,South,180,8.0,11.0,61,0.00,,,0.00,meteohub,2013-09-10 15:21:00,
2013-09-10 10:26:00,81.5,67.3,28.60,SE,135,6.0,11.0,62,0.00,,,0.00,meteohub,2013-09-10 15:26:00,
2013-09-10 10:31:00,80.8,67.5,28.60,SE,135,7.0,8.0,64,0.00,,,0.00,meteohub,2013-09-10 15:31:00,
2013-09-10 10:36:00,80.2,67.5,28.60,East,90,4.0,8.0,65,0.00,,,0.00,meteohub,2013-09-10 15:36:00,
2013-09-10 10:41:00,80.8,68.0,28.60,East,90,8.0,8.0,65,0.00,,,0.00,meteohub,2013-09-10 15:41:00,
2013-09-10 10:46:00,82.2,67.8,28.60,South,180,8.0,8.0,62,0.00,,,0.00,meteohub,2013-09-10 15:46:00,
2013-09-10 10:51:00,83.7,68.4,28.60,NE,45,2.0,8.0,60,0.00,,,0.00,meteohub,2013-09-10 15:51:00,
2013-09-10 10:56:00,84.6,67.6,28.59,South,180,6.0,8.0,57,0.00,,,0.00,meteohub,2013-09-10 15:56:00,
2013-09-10 11:01:00,85.3,67.3,28.60,West,270,8.0,8.0,55,0.00,,,0.00,meteohub,2013-09-10 16:01:00,
2013-09-10 11:06:00,85.3,66.7,28.59,SE,135,8.0,12.0,54,0.00,,,0.00,meteohub,2013-09-10 16:06:00,
2013-09-10 11:11:00,86.0,67.5,28.59,West,270,7.0,12.0,54,0.00,,,0.00,meteohub,2013-09-10 16:11:00,
2013-09-10 11:16:00,86.5,65.7,28.60,SE,135,11.0,12.0,50,0.00,,,0.00,meteohub,2013-09-10 16:16:00,
2013-09-10 11:21:00,86.9,66.6,28.60,SSE,158,1.0,11.0,51,0.00,,,0.00,meteohub,2013-09-10 16:21:00,
2013-09-10 11:26:00,87.1,65.7,28.60,East,90,8.0,11.0,49,0.00,,,0.00,meteohub,2013-09-10 16:26:00,
2013-09-10 11:31:00,87.6,64.9,28.59,East,90,9.0,12.0,47,0.00,,,0.00,meteohub,2013-09-10 16:31:00,
2013-09-10 11:36:00,88.0,65.3,28.60,East,90,10.0,12.0,47,0.00,,,0.00,meteohub,2013-09-10 16:36:00,
2013-09-10 11:41:00,88.5,65.7,28.59,East,90,6.0,11.0,47,0.00,,,0.00,meteohub,2013-09-10 16:41:00,
2013-09-10 11:46:00,89.2,65.1,28.60,SE,135,7.0,11.0,45,0.00,,,0.00,meteohub,2013-09-10 16:46:00,
2013-09-10 11:52:00,89.4,65.3,28.59,SE,135,10.0,10.0,45,0.00,,,0.00,meteohub,2013-09-10 16:52:00,
2013-09-10 11:57:00,89.2,65.1,28.60,NE,45,11.0,11.0,45,0.00,,,0.00,meteohub,2013-09-10 16:57:00,
2013-09-10 12:02:00,88.7,65.3,28.59,SE,135,5.0,11.0,46,0.00,,,0.00,meteohub,2013-09-10 17:02:00,
2013-09-10 12:07:00,88.9,64.8,28.59,NE,45,8.0,12.0,45,0.00,,,0.00,meteohub,2013-09-10 17:07:00,
2013-09-10 12:12:00,88.9,62.8,28.59,East,90,15.0,15.0,42,0.00,,,0.00,meteohub,2013-09-10 17:12:00,
2013-09-10 12:17:00,88.7,64.6,28.59,SE,135,14.0,15.0,45,0.00,,,0.00,meteohub,2013-09-10 17:17:00,
2013-09-10 12:22:00,89.4,64.0,28.59,SW,225,8.0,15.0,43,0.00,,,0.00,meteohub,2013-09-10 17:22:00,
2013-09-10 12:27:00,89.4,64.6,28.59,SE,135,6.0,15.0,44,0.00,,,0.00,meteohub,2013-09-10 17:27:00,
2013-09-10 12:32:00,89.4,63.3,28.59,South,180,5.0,15.0,42,0.00,,,0.00,meteohub,2013-09-10 17:32:00,
2013-09-10 12:37:00,90.0,62.4,28.59,East,90,12.0,15.0,40,0.00,,,0.00,meteohub,2013-09-10 17:37:00,
2013-09-10 12:42:00,90.0,63.9,28.58,East,90,4.0,13.0,42,0.00,,,0.00,meteohub,2013-09-10 17:42:00,
2013-09-10 12:47:00,90.3,64.0,28.58,South,180,6.0,14.0,42,0.00,,,0.00,meteohub,2013-09-10 17:47:00,
2013-09-10 12:52:00,90.7,63.7,28.58,SE,135,15.0,15.0,41,0.00,,,0.00,meteohub,2013-09-10 17:52:00,
2013-09-10 12:57:00,90.0,63.1,28.58,East,90,16.0,16.0,41,0.00,,,0.00,meteohub,2013-09-10 17:57:00,
2013-09-10 13:02:00,90.1,63.9,28.57,SE,135,4.0,15.0,42,0.00,,,0.00,meteohub,2013-09-10 18:02:00,
2013-09-10 13:07:00,90.9,63.1,28.57,NE,45,6.0,16.0,40,0.00,,,0.00,meteohub,2013-09-10 18:07:00,
2013-09-10 13:12:00,90.7,63.0,28.57,East,90,8.0,16.0,40,0.00,,,0.00,meteohub,2013-09-10 18:12:00,
2013-09-10 13:17:00,91.4,62.2,28.57,SE,135,16.0,16.0,38,0.00,,,0.00,meteohub,2013-09-10 18:17:00,
2013-09-10 13:22:00,91.4,60.6,28.57,East,90,10.0,16.0,36,0.00,,,0.00,meteohub,2013-09-10 18:22:00,
2013-09-10 13:27:00,92.1,60.4,28.57,East,90,15.0,16.0,35,0.00,,,0.00,meteohub,2013-09-10 18:27:00,
2013-09-10 13:32:00,91.6,61.7,28.57,SE,135,6.0,16.0,37,0.00,,,0.00,meteohub,2013-09-10 18:32:00,
2013-09-10 13:37:00,91.9,61.9,28.57,SE,135,14.0,17.0,37,0.00,,,0.00,meteohub,2013-09-10 18:37:00,
2013-09-10 13:42:00,92.3,61.5,28.57,SE,135,13.0,17.0,36,0.00,,,0.00,meteohub,2013-09-10 18:42:00,
2013-09-10 13:47:00,91.6,62.4,28.56,SE,135,5.0,17.0,38,0.00,,,0.00,meteohub,2013-09-10 18:47:00,
2013-09-10 13:52:00,91.9,61.9,28.56,SW,225,12.0,17.0,37,0.00,,,0.00,meteohub,2013-09-10 18:52:00,
2013-09-10 13:57:00,91.9,61.9,28.56,SE,135,11.0,17.0,37,0.00,,,0.00,meteohub,2013-09-10 18:57:00,
2013-09-10 14:02:00,90.5,62.2,28.56,SE,135,9.0,12.0,39,0.00,,,0.00,meteohub,2013-09-10 19:02:00,
2013-09-10 14:07:00,91.6,61.7,28.56,West,270,6.0,12.0,37,0.00,,,0.00,meteohub,2013-09-10 19:07:00,
2013-09-10 14:12:00,91.4,62.2,28.56,SE,135,9.0,12.0,38,0.00,,,0.00,meteohub,2013-09-10 19:12:00,
2013-09-10 14:17:00,90.5,62.2,28.55,SE,135,7.0,11.0,39,0.00,,,0.00,meteohub,2013-09-10 19:17:00,
2013-09-10 14:22:00,90.7,62.2,28.55,SE,135,8.0,11.0,39,0.00,,,0.00,meteohub,2013-09-10 19:22:00,
2013-09-10 14:27:00,91.9,61.9,28.55,South,180,8.0,11.0,37,0.00,,,0.00,meteohub,2013-09-10 19:27:00,
2013-09-10 14:32:00,93.2,61.5,28.54,SE,135,8.0,10.0,35,0.00,,,0.00,meteohub,2013-09-10 19:32:00,
2013-09-10 14:37:00,93.2,61.5,28.54,East,90,11.0,11.0,35,0.00,,,0.00,meteohub,2013-09-10 19:37:00,
2013-09-10 14:42:00,94.3,61.5,28.54,East,90,6.0,11.0,34,0.00,,,0.00,meteohub,2013-09-10 19:42:00,
2013-09-10 14:47:00,94.3,59.9,28.54,SE,135,17.0,17.0,32,0.00,,,0.00,meteohub,2013-09-10 19:47:00,
2013-09-10 14:52:00,93.4,60.8,28.54,SW,225,13.0,17.0,34,0.00,,,0.00,meteohub,2013-09-10 19:52:00,
2013-09-10 14:57:00,93.2,60.6,28.54,SE,135,8.0,17.0,34,0.00,,,0.00,meteohub,2013-09-10 19:57:00,
2013-09-10 15:02:00,92.1,61.3,28.54,East,90,12.0,17.0,36,0.00,,,0.00,meteohub,2013-09-10 20:02:00,
2013-09-10 15:07:00,91.6,60.8,28.53,SE,135,8.0,15.0,36,0.00,,,0.00,meteohub,2013-09-10 20:07:00,
2013-09-10 15:12:00,90.9,61.7,28.53,NE,45,8.0,16.0,38,0.00,,,0.00,meteohub,2013-09-10 20:12:00,
2013-09-10 15:17:00,91.9,61.2,28.53,SE,135,15.0,16.0,36,0.00,,,0.00,meteohub,2013-09-10 20:17:00,
2013-09-10 15:23:00,91.2,60.6,28.53,East,90,11.0,15.0,36,0.00,,,0.00,meteohub,2013-09-10 20:23:00,
2013-09-10 15:28:00,91.4,61.5,28.53,SE,135,10.0,15.0,37,0.00,,,0.00,meteohub,2013-09-10 20:28:00,
2013-09-10 15:33:00,91.9,61.2,28.52,East,90,9.0,15.0,36,0.00,,,0.00,meteohub,2013-09-10 20:33:00,
2013-09-10 15:38:00,91.8,61.0,28.52,NE,45,10.0,15.0,36,0.00,,,0.00,meteohub,2013-09-10 20:38:00,
2013-09-10 15:43:00,93.2,60.6,28.52,South,180,19.0,19.0,34,0.00,,,0.00,meteohub,2013-09-10 20:43:00,
2013-09-10 15:48:00,91.6,61.7,28.52,East,90,13.0,19.0,37,0.00,,,0.00,meteohub,2013-09-10 20:48:00,
2013-09-10 15:53:00,91.2,62.1,28.52,South,180,12.0,19.0,38,0.00,,,0.00,meteohub,2013-09-10 20:53:00,
2013-09-10 15:58:00,91.4,60.6,28.52,NE,45,14.0,19.0,36,0.00,,,0.00,meteohub,2013-09-10 20:58:00,
2013-09-10 16:03:00,91.8,60.3,28.51,SE,135,10.0,17.0,35,0.00,,,0.00,meteohub,2013-09-10 21:03:00,
2013-09-10 16:08:00,92.7,61.0,28.51,West,270,4.0,17.0,35,0.00,,,0.00,meteohub,2013-09-10 21:08:00,
2013-09-10 16:13:00,93.0,59.7,28.51,South,180,10.0,14.0,33,0.00,,,0.00,meteohub,2013-09-10 21:13:00,
2013-09-10 16:18:00,92.7,59.4,28.51,ENE,68,10.0,16.0,33,0.00,,,0.00,meteohub,2013-09-10 21:18:00,
2013-09-10 16:23:00,93.2,60.6,28.51,SE,135,8.0,16.0,34,0.00,,,0.00,meteohub,2013-09-10 21:23:00,
2013-09-10 16:28:00,93.0,60.4,28.50,SE,135,7.0,16.0,34,0.00,,,0.00,meteohub,2013-09-10 21:28:00,
2013-09-10 16:33:00,93.6,61.0,28.50,SE,135,6.0,13.0,34,0.00,,,0.00,meteohub,2013-09-10 21:33:00,
2013-09-10 16:38:00,93.9,61.3,28.50,SE,135,12.0,13.0,34,0.00,,,0.00,meteohub,2013-09-10 21:38:00,
2013-09-10 16:43:00,94.3,60.8,28.50,NE,45,8.0,15.0,33,0.00,,,0.00,meteohub,2013-09-10 21:43:00,
2013-09-10 16:48:00,95.2,59.7,28.49,SE,135,9.0,15.0,31,0.00,,,0.00,meteohub,2013-09-10 21:48:00,
2013-09-10 16:53:00,94.6,60.3,28.49,SE,135,10.0,15.0,32,0.00,,,0.00,meteohub,2013-09-10 21:53:00,
2013-09-10 16:58:00,94.5,59.2,28.49,South,180,6.0,15.0,31,0.00,,,0.00,meteohub,2013-09-10 21:58:00,
2013-09-10 17:03:00,94.3,59.9,28.49,SE,135,5.0,15.0,32,0.00,,,0.00,meteohub,2013-09-10 22:03:00,
2013-09-10 17:08:00,94.3,59.0,28.49,SW,225,5.0,15.0,31,0.00,,,0.00,meteohub,2013-09-10 22:08:00,
2013-09-10 17:13:00,94.3,59.0,28.49,South,180,8.0,15.0,31,0.00,,,0.00,meteohub,2013-09-10 22:13:00,
2013-09-10 17:18:00,94.1,59.7,28.49,South,180,8.0,12.0,32,0.00,,,0.00,meteohub,2013-09-10 22:18:00,
2013-09-10 17:23:00,93.7,60.3,28.49,East,90,8.0,14.0,33,0.00,,,0.00,meteohub,2013-09-10 22:23:00,
2013-09-10 17:28:00,92.7,61.0,28.49,SE,135,9.0,14.0,35,0.00,,,0.00,meteohub,2013-09-10 22:28:00,
2013-09-10 17:34:00,91.4,61.5,28.49,South,180,10.0,14.0,37,0.00,,,0.00,meteohub,2013-09-10 22:34:00,
2013-09-10 17:39:00,90.3,61.3,28.49,SE,135,8.0,14.0,38,0.00,,,0.00,meteohub,2013-09-10 22:39:00,
2013-09-10 17:44:00,90.1,60.4,28.49,South,180,11.0,11.0,37,0.00,,,0.00,meteohub,2013-09-10 22:44:00,
2013-09-10 17:49:00,89.6,62.1,28.49,SSE,158,7.0,14.0,40,0.00,,,0.00,meteohub,2013-09-10 22:49:00,
2013-09-10 17:54:00,88.7,63.3,28.49,South,180,11.0,14.0,43,0.00,,,0.00,meteohub,2013-09-10 22:54:00,
2013-09-10 17:59:00,88.3,63.0,28.49,South,180,13.0,14.0,43,0.00,,,0.00,meteohub,2013-09-10 22:59:00,
2013-09-10 18:04:00,89.2,63.1,28.49,SE,135,9.0,13.0,42,0.00,,,0.00,meteohub,2013-09-10 23:04:00,
2013-09-10 18:09:00,90.1,63.3,28.49,South,180,16.0,16.0,41,0.00,,,0.00,meteohub,2013-09-10 23:09:00,
2013-09-10 18:14:00,89.4,64.0,28.49,South,180,14.0,20.0,43,0.00,,,0.00,meteohub,2013-09-10 23:14:00,
2013-09-10 18:19:00,89.6,63.5,28.49,SE,135,13.0,20.0,42,0.00,,,0.00,meteohub,2013-09-10 23:19:00,
2013-09-10 18:24:00,89.1,63.7,28.50,South,180,10.0,20.0,43,0.00,,,0.00,meteohub,2013-09-10 23:24:00,
2013-09-10 18:29:00,89.2,63.9,28.49,South,180,11.0,15.0,43,0.00,,,0.00,meteohub,2013-09-10 23:29:00,
2013-09-10 18:34:00,89.4,64.0,28.49,South,180,8.0,15.0,43,0.00,,,0.00,meteohub,2013-09-10 23:34:00,
2013-09-10 18:39:00,90.0,63.9,28.49,West,270,4.0,15.0,42,0.00,,,0.00,meteohub,2013-09-10 23:39:00,
2013-09-10 18:44:00,90.7,63.0,28.49,South,180,2.0,11.0,40,0.00,,,0.00,meteohub,2013-09-10 23:44:00,
2013-09-10 18:49:00,90.7,62.2,28.49,East,90,8.0,15.0,39,0.00,,,0.00,meteohub,2013-09-10 23:49:00,
2013-09-10 18:54:00,90.3,61.3,28.49,SE,135,7.0,20.0,38,0.00,,,0.00,meteohub,2013-09-10 23:54:00,
2013-09-10 18:59:00,90.0,60.3,28.49,East,90,12.0,20.0,37,0.00,,,0.00,meteohub,2013-09-10 23:59:00,
2013-09-10 19:04:00,90.0,62.4,28.49,SE,135,12.0,20.0,40,0.00,,,0.00,meteohub,2013-09-11 00:04:00,
2013-09-10 19:09:00,89.8,62.2,28.49,SE,135,8.0,18.0,40,0.00,,,0.00,meteohub,2013-09-11 00:09:00,
2013-09-10 19:15:00,89.4,62.6,28.49,SE,135,11.0,14.0,41,0.00,,,0.00,meteohub,2013-09-11 00:15:00,
2013-09-10 19:20:00,88.9,62.1,28.49,SW,225,10.0,14.0,41,0.00,,,0.00,meteohub,2013-09-11 00:20:00,
2013-09-10 19:25:00,89.1,63.0,28.49,South,180,4.0,11.0,42,0.00,,,0.00,meteohub,2013-09-11 00:25:00,
2013-09-10 19:30:00,88.5,61.9,28.49,East,90,7.0,11.0,41,0.00,,,0.00,meteohub,2013-09-11 00:30:00,
2013-09-10 19:35:00,88.5,62.4,28.49,NE,45,1.0,11.0,42,0.00,,,0.00,meteohub,2013-09-11 00:35:00,
2013-09-10 19:40:00,88.2,62.8,28.49,East,90,7.0,9.0,43,0.00,,,0.00,meteohub,2013-09-11 00:40:00,
2013-09-10 19:45:00,87.8,63.1,28.49,South,180,4.0,8.0,44,0.00,,,0.00,meteohub,2013-09-11 00:45:00,
2013-09-10 19:50:00,87.6,63.7,28.49,SE,135,3.0,7.0,45,0.00,,,0.00,meteohub,2013-09-11 00:50:00,
2013-09-10 19:55:00,87.3,64.0,28.49,South,180,5.0,7.0,46,0.00,,,0.00,meteohub,2013-09-11 00:55:00,
2013-09-10 20:00:00,86.7,64.0,28.50,South,180,5.0,6.0,47,0.00,,,0.00,meteohub,2013-09-11 01:00:00,
2013-09-10 20:05:00,86.7,64.0,28.50,South,180,7.0,7.0,47,0.00,,,0.00,meteohub,2013-09-11 01:05:00,
2013-09-10 20:10:00,86.5,63.9,28.50,South,180,4.0,7.0,47,0.00,,,0.00,meteohub,2013-09-11 01:10:00,
2013-09-10 20:15:00,86.4,63.7,28.50,SSW,203,4.0,7.0,47,0.00,,,0.00,meteohub,2013-09-11 01:15:00,
2013-09-10 20:20:00,86.2,64.2,28.50,South,180,1.0,7.0,48,0.00,,,0.00,meteohub,2013-09-11 01:20:00,
2013-09-10 20:26:00,85.8,63.9,28.50,SW,225,1.0,5.0,48,0.00,,,0.00,meteohub,2013-09-11 01:26:00,
2013-09-10 20:31:00,85.6,64.2,28.51,SE,135,1.0,4.0,49,0.00,,,0.00,meteohub,2013-09-11 01:31:00,
2013-09-10 20:36:00,85.3,64.0,28.51,SE,135,1.0,1.0,49,0.00,,,0.00,meteohub,2013-09-11 01:36:00,
2013-09-10 20:41:00,85.1,63.9,28.51,SE,135,1.0,1.0,49,0.00,,,0.00,meteohub,2013-09-11 01:41:00,
2013-09-10 20:46:00,84.4,63.7,28.51,South,180,1.0,1.0,50,0.00,,,0.00,meteohub,2013-09-11 01:46:00,
2013-09-10 20:51:00,84.4,63.7,28.51,South,180,1.0,1.0,50,0.00,,,0.00,meteohub,2013-09-11 01:51:00,
2013-09-10 20:56:00,84.2,63.5,28.52,South,180,1.0,1.0,50,0.00,,,0.00,meteohub,2013-09-11 01:56:00,
2013-09-10 21:01:00,83.8,63.9,28.52,East,90,1.0,1.0,51,0.00,,,0.00,meteohub,2013-09-11 02:01:00,
2013-09-10 21:06:00,83.5,63.5,28.52,South,180,0.0,1.0,51,0.00,,,0.00,meteohub,2013-09-11 02:06:00,
2013-09-10 21:11:00,83.3,63.3,28.53,East,90,0.0,1.0,51,0.00,,,0.00,meteohub,2013-09-11 02:11:00,
2013-09-10 21:16:00,83.1,63.1,28.53,South,180,0.0,1.0,51,0.00,,,0.00,meteohub,2013-09-11 02:16:00,
2013-09-10 21:21:00,82.9,63.0,28.53,South,180,0.0,0.0,51,0.00,,,0.00,meteohub,2013-09-11 02:21:00,
2013-09-10 21:26:00,82.9,63.0,28.53,SE,135,0.0,0.0,51,0.00,,,0.00,meteohub,2013-09-11 02:26:00,
2013-09-10 21:31:00,82.8,62.8,28.54,East,90,0.0,0.0,51,0.00,,,0.00,meteohub,2013-09-11 02:31:00,
2013-09-10 21:36:00,83.1,62.6,28.54,SE,135,1.0,1.0,50,0.00,,,0.00,meteohub,2013-09-11 02:36:00,
2013-09-10 21:41:00,83.8,62.6,28.54,SE,135,1.0,2.0,49,0.00,,,0.00,meteohub,2013-09-11 02:41:00,
2013-09-10 21:46:00,84.0,62.8,28.54,East,90,0.0,2.0,49,0.00,,,0.00,meteohub,2013-09-11 02:46:00,
2013-09-10 21:51:00,84.2,64.0,28.54,East,90,2.0,2.0,51,0.00,,,0.00,meteohub,2013-09-11 02:51:00,
2013-09-10 21:56:00,83.8,64.4,28.55,SE,135,4.0,8.0,52,0.00,,,0.00,meteohub,2013-09-11 02:56:00,
2013-09-10 22:02:00,83.7,64.8,28.54,SE,135,4.0,8.0,53,0.00,,,0.00,meteohub,2013-09-11 03:02:00,
2013-09-10 22:07:00,83.5,64.6,28.55,South,180,2.0,12.0,53,0.00,,,0.00,meteohub,2013-09-11 03:07:00,
2013-09-10 22:12:00,83.5,64.6,28.55,SE,135,4.0,12.0,53,0.00,,,0.00,meteohub,2013-09-11 03:12:00,
2013-09-10 22:17:00,83.5,64.6,28.55,SE,135,7.0,8.0,53,0.00,,,0.00,meteohub,2013-09-11 03:17:00,
2013-09-10 22:22:00,83.3,64.9,28.55,SE,135,1.0,7.0,54,0.00,,,0.00,meteohub,2013-09-11 03:22:00,
2013-09-10 22:27:00,82.9,65.1,28.55,ESE,113,2.0,7.0,55,0.00,,,0.00,meteohub,2013-09-11 03:27:00,
2013-09-10 22:32:00,82.6,64.8,28.56,East,90,3.0,7.0,55,0.00,,,0.00,meteohub,2013-09-11 03:32:00,
2013-09-10 22:37:00,82.2,64.9,28.56,SE,135,2.0,6.0,56,0.00,,,0.00,meteohub,2013-09-11 03:37:00,
2013-09-10 22:42:00,82.2,65.5,28.56,East,90,8.0,8.0,57,0.00,,,0.00,meteohub,2013-09-11 03:42:00,
2013-09-10 22:47:00,82.0,65.3,28.56,SE,135,6.0,8.0,57,0.00,,,0.00,meteohub,2013-09-11 03:47:00,
2013-09-10 22:52:00,81.9,65.7,28.56,SE,135,3.0,8.0,58,0.00,,,0.00,meteohub,2013-09-11 03:52:00,
2013-09-10 22:57:00,81.7,65.5,28.56,East,90,1.0,8.0,58,0.00,,,0.00,meteohub,2013-09-11 03:57:00,
2013-09-10 23:01:00,81.5,65.3,28.56,SE,135,2.0,7.0,58,0.00,,,0.00,meteohub,2013-09-11 04:01:00,
2013-09-10 23:02:00,81.3,65.1,28.56,SE,135,3.0,7.0,58,0.00,,,0.00,meteohub,2013-09-11 04:02:00,
2013-09-10 23:07:00,81.5,65.3,28.56,SSE,158,4.0,7.0,58,0.00,,,0.00,meteohub,2013-09-11 04:07:00,
2013-09-10 23:12:00,81.3,65.1,28.56,East,90,3.0,7.0,58,0.00,,,0.00,meteohub,2013-09-11 04:12:00,
2013-09-10 23:17:00,81.3,64.6,28.56,South,180,1.0,4.0,57,0.00,,,0.00,meteohub,2013-09-11 04:17:00,
2013-09-10 23:22:00,81.1,64.4,28.56,SE,135,1.0,5.0,57,0.00,,,0.00,meteohub,2013-09-11 04:22:00,
2013-09-10 23:27:00,81.0,64.2,28.56,West,270,1.0,5.0,57,0.00,,,0.00,meteohub,2013-09-11 04:27:00,
2013-09-10 23:32:00,81.1,64.0,28.56,East,90,1.0,5.0,56,0.00,,,0.00,meteohub,2013-09-11 04:32:00,
2013-09-10 23:37:00,80.8,63.7,28.56,SE,135,1.0,2.0,56,0.00,,,0.00,meteohub,2013-09-11 04:37:00,
2013-09-10 23:42:00,80.6,63.5,28.56,North,0,1.0,2.0,56,0.00,,,0.00,meteohub,2013-09-11 04:42:00,
2013-09-10 23:47:00,80.6,63.5,28.56,NE,45,1.0,3.0,56,0.00,,,0.00,meteohub,2013-09-11 04:47:00,
2013-09-10 23:52:00,80.8,63.7,28.56,SE,135,1.0,4.0,56,0.00,,,0.00,meteohub,2013-09-11 04:52:00,
2013-09-10 23:57:00,80.6,63.5,28.56,East,90,5.0,5.0,56,0.00,,,0.00,meteohub,2013-09-11 04:57:00,